Location: Prigorodnyy
(51.0424°N, 71.4317°E)
Time: 06:30:51
(UTC+00:00)

Daily predictions for brighter satellites

Satellite Brightness Start Highest point End
(mag) Time Altitude Azimuth Time Altitude Azimuth Time Altitude Azimuth
NOAA 12 4.2 12:02:17 10° SE 12:07:29 57° ENE 12:12:41 10° N
Envisat 3.0 12:03:37 10° SSE 12:08:42 89° ENE 12:13:50 10° NNW
Cosmos 1633 Rocket 3.0 12:05:54 10° N 12:10:18 73° ENE 12:14:38 10° SSE
Cosmos 773 Rocket 4.2 12:07:04 10° S 12:12:13 56° ESE 12:17:25 10° NNE
PAYLOAD B 4.3 12:07:31 10° SSE 12:13:07 88° ENE 12:18:42 10° NNW
Cosmos 2366 rocket 4.0 12:07:18 10° N 12:13:27 63° ENE 12:19:32 10° SSE
Cosmos 1238 Rocket 4.4 12:10:35 10° NNE 12:13:33 19° ENE 12:16:52 10° ESE
Cosmos 2237 Rocket 3.1 12:09:04 10° SW 12:14:29 47° NW 12:19:57 10° NNE
Cosmos 2218 Rocket 3.9 12:08:59 10° N 12:15:08 67° ENE 12:21:15 10° SSE
Cosmos 1943 Rocket 2.3 12:09:45 10° NNW 12:15:20 82° WSW 12:20:56 10° SSE
USA 281 4.0 12:10:23 10° E 12:15:53 30° NE 12:21:25 10° NNW
NOAA 11 4.4 12:11:01 10° SE 12:16:12 48° ENE 12:21:26 10° N
Meteor 1-20 Rocket 4.3 12:10:27 10° NNW 12:16:21 86° E 12:22:10 10° SSE
Cosmos 1867 3.9 12:11:15 10° SW 12:16:40 68° NW 12:22:09 10° NE
Okean O Rocket 1.6 12:13:49 10° SSE 12:18:06 59° ENE 12:22:27 10° N
CZ-4B R/B 3.1 12:14:09 10° SSE 12:19:26 73° ENE 12:24:44 10° NNW
SL-16 R/B 4.4 12:18:31 10° NNW 12:19:53 11° NNW 12:21:14 10° N
Cosmos 2369 Rocket 2.2 12:15:11 10° NNW 12:20:54 75° ENE 12:26:33 10° SE
Cosmos 1943 4.2 12:17:45 10° SSE 12:22:23 27° ESE 12:26:06 14° NE
Okean-O 3.9 12:20:12 10° ESE 12:23:19 19° ENE 12:26:28 10° NNE
Cosmos 1812 4.3 12:22:15 10° SE 12:24:42 16° E 12:25:01 16° E
CZ-4B R/B 2.7 12:24:12 18° ENE 12:25:04 20° E 12:27:30 10° SE
Landsat 5 3.6 12:21:18 10° NNE 12:25:49 80° ESE 12:30:19 10° SSW
Cosmos 44 Rocket 3.5 12:21:42 10° NW 12:26:47 56° NE 12:31:54 10° ESE
X-37B 2.4 12:28:10 10° SW 12:30:48 24° S 12:33:01 12° ESE
Cosmos 1602 3.6 12:29:50 10° N 12:33:47 77° E 12:37:39 10° SSE
Meteor 1-26 Rocket 4.4 12:27:55 10° S 12:33:52 65° E 12:39:47 10° NNE
USA 267 3.5 12:30:44 15° E 12:36:12 56° N 12:42:34 10° WNW
NOSS 3-3 (A) 4.5 12:30:04 10° NW 12:37:18 68° NE 12:45:29 10° ESE
NOSS 3-3 (C) 4.5 12:30:08 10° NW 12:37:23 68° NE 12:45:34 10° ESE
Meteor 1-14 Rocket 4.3 12:37:13 10° N 12:43:14 77° ENE 12:49:13 10° SSE
ERS-2 2.9 12:44:34 25° ENE 12:45:45 31° E 12:49:02 10° SSE
Cosmos 1151 Rocket 3.1 12:43:48 10° SSW 12:48:03 76° W 12:52:21 10° N
Cosmos 1939 Rocket 2.9 12:45:12 10° SE 12:48:58 49° ENE 12:52:49 10° N
ADEOS Rocket 4.0 12:41:37 10° N 12:49:18 65° WNW 12:56:52 10° SSW
CZ-2D R/B 3.8 12:46:29 10° SE 12:50:01 36° ENE 12:53:34 10° N
CZ-4C R/B 4.0 12:47:29 10° N 12:51:01 48° WNW 12:54:29 10° SW
Helios 1A Rocket 3.7 12:51:46 28° ENE 12:52:11 28° ENE 12:55:40 10° N
Cosmos 1934 Rocket 4.5 12:47:21 10° N 12:53:12 36° ENE 12:58:57 10° SE
YAOGAN 1 3.4 12:52:38 26° E 12:53:29 28° ENE 12:57:11 10° N
YAOGAN 6 4.4 12:50:57 10° SSW 12:54:15 34° W 12:57:33 10° NNW
Cosmos 1470 Rocket 3.8 12:50:21 10° NNW 12:54:40 70° W 12:58:57 10° S
CZ-4 R/B 2.1 12:54:05 27° E 12:55:05 31° ENE 12:58:42 10° N
CENTAUR R/B 3.5 12:54:46 10° SSE 12:59:36 26° ESE 13:01:09 24° E
Cosmos 1515 Rocket 3.5 12:59:36 10° S 13:04:00 83° E 13:08:28 10° NNE
Cosmos 1782 2.9 13:00:38 10° SSW 13:04:35 78° W 13:08:37 10° N
CZ-4 R/B 4.5 13:01:19 10° SSE 13:05:21 53° ENE 13:09:23 10° N
Cosmos 1656 Rocket 3.6 12:59:41 10° NNW 13:05:22 89° ENE 13:10:57 10° SSE
SL-24 R/B 4.2 13:08:32 37° ESE 13:08:32 37° ESE 13:11:36 10° SSE
Meteor 1-10 Rocket 4.4 13:03:27 10° SSE 13:08:45 45° E 13:12:30 19° NNE
Nadezhda 3 Rocket 4.1 13:02:43 10° SSE 13:08:53 55° E 13:15:05 10° NNE
SL-16 R/B 3.1 13:03:33 10° SW 13:09:00 47° NW 13:14:03 12° NNE
COSMO-SKYMED 1 2.8 13:08:01 31° NE 13:09:42 47° E 13:13:54 10° S
CZ-2C R/B 3.0 13:05:06 10° SE 13:09:48 48° ENE 13:14:22 10° N
Lacrosse 4 Rocket 3.1 13:06:54 10° SSE 13:08:33 17° SE 13:08:33 17° SE
BREEZE-M DEB (TANK) 4.4 13:09:09 10° S 13:10:22 12° SSE 13:10:31 11° SSE
Cosmos 1697 Rocket 4.4 13:08:57 10° N 13:12:10 16° NNE 13:12:10 16° NNE
Cosmos 371 Rocket 3.4 13:07:38 10° NNW 13:12:27 53° ENE 13:15:24 22° SE
Cosmos 1821 Rocket 3.9 13:06:26 10° N 13:12:43 75° ENE 13:19:03 10° SSE
H-2A R/B 2.5 13:11:32 28° ESE 13:13:25 37° ENE 13:18:05 10° N
NOSS 3-2 (C) 4.2 13:09:10 10° S 13:14:01 30° ESE 13:14:49 29° E
TELKOM 3 4.2 13:11:54 10° W 13:14:21 39° SSW 13:14:21 39° SSW
Cosmos 1666 3.4 13:12:44 10° N 13:15:22 36° NNE 13:15:22 36° NNE
Cosmos 1680 Rocket 3.8 13:13:48 10° S 13:18:46 43° ESE 13:19:54 38° ENE
Cosmos 1500 3.4 13:17:37 10° NNW 13:21:27 72° W 13:25:16 10° S
Cosmos 1933 Rocket 4.4 13:20:09 10° NNW 13:24:31 52° W 13:28:50 10° S
Feng Yun 1-1 Rocket 4.5 13:20:24 10° S 13:26:05 74° WSW 13:31:40 10° NNW
Cosmos 2228 Rocket 3.0 13:21:40 10° S 13:26:09 71° E 13:28:04 34° NNE
Cosmos 1461 4.0 13:22:17 10° S 13:25:54 33° SE 13:25:54 33° SE
Lacrosse 5 rocket 1.9 13:24:10 10° W 13:27:34 37° NNW 13:27:46 37° N
ISS -3.4 13:25:29 10° W 13:28:49 59° SSW 13:28:55 59° SSW
Cosmos 1538 Rocket 4.4 13:24:00 10° SW 13:29:20 64° WNW 13:33:20 18° NNE
SAR-Lupe-4 4.2 13:30:23 42° SSE 13:30:23 42° SSE 13:32:57 10° S
SL-24 DEB 4.2 13:24:52 10° N 13:29:39 87° W 13:34:20 10° S
Cosmos 1371 Rocket 3.8 13:26:28 10° NNW 13:31:41 73° ENE 13:35:07 22° SE
IRS-1C Rocket 4.1 13:26:45 10° SSE 13:32:02 81° WSW 13:37:22 10° NNW
Meteor 1-4 Rocket 4.3 13:29:06 10° SW 13:32:18 31° WNW 13:34:56 14° N
SKYMED 3 4.4 13:32:17 41° NNE 13:33:47 81° ESE 13:38:08 10° SSW
CSL-04 Debris 4.3 13:32:25 35° ESE 13:34:23 52° ENE 13:39:42 10° N
SL-23 DEB 4.4 13:31:43 10° WSW 13:35:39 73° SSE 13:37:00 50° E
NOSS 3-2 (A) 3.4 13:32:06 10° SSW 13:37:45 64° SE 13:39:36 44° ENE
Cosmos 2056 Rocket 3.4 13:32:27 10° NNW 13:37:46 72° ENE 13:40:18 32° SE
H-2A R/B 3.9 13:34:12 10° N 13:37:53 29° WNW 13:41:36 10° SW
Cosmos 2112 Rocket 4.0 13:34:45 10° S 13:39:54 55° ESE 13:40:11 54° E
BREEZE-M DEB (TANK) 4.0 13:35:47 10° SW 13:42:24 35° SSE 13:42:34 35° SSE
USA 215 3.8 13:43:21 36° ESE 13:44:07 37° SE 13:50:06 10° SSW
CSL-04 Rocket 3.5 13:46:39 59° ENE 13:46:48 60° ENE 13:52:01 10° N
Cosmos 332 Rocket 3.6 13:43:53 10° NNW 13:48:30 70° NE 13:48:30 70° NE
Meteor 2-6 Rocket 4.3 13:46:10 10° SSW 13:51:41 72° WNW 13:56:03 16° N
Cosmos 1980 Rocket 4.1 13:49:13 10° N 13:51:07 15° N 13:51:07 15° N
Cosmos 1238 Rocket 3.7 13:49:14 10° NNW 13:53:14 56° W 13:58:04 10° S
Cosmos 1624 Rocket 3.9 13:48:45 10° NNW 13:54:06 86° WSW 13:56:14 37° SSE
Okean O Rocket 4.4 13:51:47 10° SW 13:54:51 18° W 13:57:57 10° NW
MOS 1 Rocket 3.5 13:54:35 67° ENE 13:54:59 69° E 14:00:19 10° S
CZ-4B R/B 3.2 13:57:20 27° WNW 13:57:20 27° WNW 14:00:05 10° SW
SKYMED 2 4.0 13:56:38 43° NNW 13:57:50 61° WNW 14:02:06 10° SSW
USA 238 DEB 3.5 13:51:40 10° SSW 13:58:15 75° SE 13:59:50 54° ENE
USA 238 3.5 13:51:46 10° SSW 13:58:21 74° SE 13:59:54 55° ENE
Okean-O 2.9 13:54:58 10° S 13:59:22 65° WSW 14:03:49 10° NNW
Cosmos 1869 Rocket 4.3 13:55:16 10° NNW 13:59:40 54° W 14:04:00 10° S
Cosmos 1605 Rocket 3.8 13:53:36 10° N 13:59:41 65° ENE 14:00:14 62° ESE
USA 281 3.2 13:53:14 10° SSE 13:59:49 84° WSW 14:06:27 10° NNW
Cosmos 2237 Rocket 4.5 13:56:46 10° WNW 14:00:03 15° NNW 14:03:03 11° N
Cosmos 1812 3.5 13:56:23 10° SSW 14:00:06 48° WNW 14:00:09 48° WNW
Cosmos 1603 4.1 13:59:11 10° SW 14:04:43 58° NW 14:06:46 37° N
Meteor 1-11 Rocket 4.1 13:59:05 10° NNW 14:04:50 68° W 14:10:41 10° S
Cosmos 1943 3.5 14:00:25 10° SW 14:06:03 63° NW 14:07:56 41° N
ARGOS 3.4 14:07:53 55° N 14:07:53 55° N 14:12:08 10° NNW
SL-16 R/B 4.5 14:05:04 10° N 14:05:57 11° N 14:05:57 11° N
X-37B 3.4 14:04:13 10° WSW 14:05:18 17° SW 14:05:18 17° SW
Cosmos 1420 Rocket 4.3 14:02:44 10° NNW 14:06:53 56° N 14:06:53 56° N
Cosmos 158 Rocket 4.3 14:11:25 10° SW 14:16:16 56° WNW 14:16:39 54° NW
USA 267 3.1 14:18:06 69° ESE 14:19:01 89° NNE 14:25:36 10° WNW
ERS-2 4.2 14:19:09 26° WNW 14:19:11 26° WNW 14:22:16 10° WSW
YAOGAN 1 3.9 14:29:48 38° W 14:29:48 38° W 14:33:32 10° NNW
CZ-4 R/B 3.2 14:30:07 30° W 14:30:07 30° W 14:33:45 10° NNW
Meteor 1-27 Rocket 4.3 14:40:26 10° SSW 14:45:21 52° W 14:45:21 52° W
Lacrosse 4 Rocket 4.1 14:44:15 10° SW 14:44:54 14° SW 14:44:54 14° SW
CENTAUR R/B 2.8 14:43:17 10° SW 14:48:23 65° WSW 14:48:23 65° WSW
H-2A R/B 3.3 14:52:10 36° WSW 14:52:52 37° W 14:57:36 10° NNW
SL-16 R/B 4.5 14:51:19 10° WNW 14:54:37 16° NNW 14:55:56 14° NNW
NOSS 3-2 (C) 4.3 14:58:31 10° SW 15:02:18 43° WSW 15:02:18 43° WSW
USA 215 4.4 15:30:43 35° WSW 15:30:43 35° WSW 15:34:10 10° WSW
Lacrosse 5 4.5 22:38:46 17° ENE 22:38:46 17° ENE 22:39:55 10° ENE
Cosmos 2344 4.2 22:44:46 69° N 22:45:55 75° NE 22:58:16 10° SE
ATLAS 2AS CENTAUR R/B 3.2 22:55:54 66° ESE 22:55:54 66° ESE 23:03:08 10° NE
CZ-4C R/B 3.3 23:11:08 41° E 23:11:08 41° E 23:15:35 10° NE
Cosmos 1844 Rocket 3.5 23:29:09 41° SE 23:30:17 47° ESE 23:35:43 10° NE
SJ 16-02 4.1 23:35:08 11° NNE 23:35:08 11° NNE 23:35:17 10° NNE
ATLAS 3B R/B 3.1 23:44:31 48° SSW 23:44:31 48° SSW 23:50:06 10° SSE
ATLAS 5 CENTAUR R/B 4.3 23:48:58 10° SSE 23:51:19 15° ESE 23:53:49 10° ENE
Cosmos 2297 Rocket 4.4 23:53:30 12° N 23:53:30 12° N 23:54:27 10° N
Cosmos 405 Rocket 4.5 23:53:20 29° ENE 23:53:20 29° ENE 23:55:56 10° NNE
